Weather History for Kodiak, AK

Change the Weather History Date:

Saturday, September 1, 2012

  Actual Average Record
Temperature  
Mean Temperature 51 °F 53 °F  
Max Temperature 59 °F 60 °F 67 °F (2013)
Min Temperature 43 °F 47 °F 37 °F (1988)
Degree Days  
Heating Degree Days 14 12  
Month to date heating degree days 14 12  
Since 1 July heating degree days 748 642  
Cooling Degree Days 0    
Month to date cooling degree days 0  
Year to date cooling degree days 0  
Growing Degree Days 2 (Base 50)    
Moisture  
Dew Point 41 °F    
Average Humidity 0    
Maximum Humidity 0    
Minimum Humidity 0    
Precipitation  
Precipitation T in 0.18 in 2.30 in (1957)
Month to date precipitation T 0.18  
Year to date precipitation 33.41 46.97  
Snow  
Snow 0.00 in 0.00 in 0.00 in (2014)
Month to date snowfall 0.0 0.0  
Since 1 July snowfall 0.0 0.0  
Since 1 September snowfall 0.0 0.0  
Snow Depth 0.00 in    
Sea Level Pressure  
Sea Level Pressure 29.65 in    
Wind  
Wind Speed 6 mph (NW)    
Max Wind Speed 16 mph    
Max Gust Speed 20 mph    
Visibility 10 miles    
Events Rain    
T = Trace of Precipitation, MM = Missing Value Source: NWS Daily Summary

Daily Weather History Graph

Daily Weather History Graph

Search for Another Location

Airport:

Trip Planner

Search our weather history database for the weather conditions in past years. The results will help you decide how hot, cold, wet, or windy it might be!

Date:

Astronomy

Sep. 01, 2012 Rise Set
Actual Time 7:11 AM AKDT 9:05 PM AKDT
Civil Twilight 6:30 AM AKDT 9:47 PM AKDT
Nautical Twilight 5:37 AM AKDT 10:39 PM AKDT
Astronomical Twilight 4:34 AM AKDT 11:41 PM AKDT
Moon 8:51 PM AKDT (9/1) 9:00 AM AKDT (9/1)
Length of Visible Light 15h 16m
Length of Day
13h 54m
Full, 98% of the Moon is Illuminated
Sep 1
Full
Sep 8
Last Quarter
Sep 15
New
Sep 22
First Quarter
Sep 29
Full

Hourly Weather History & Observations

Time (AKDT) Temp. Windchill Dew Point Humidity Pressure Visibility Wind Dir Wind Speed Gust Speed Precip Events Conditions
12:53 AM 51.1 °F - 46.9 °F 86% 29.64 in 10.0 mi WNW 5.8 mph - 0.00 in Rain Light Rain
1:27 AM 50.0 °F - 48.2 °F 94% 29.63 in 10.0 mi Calm Calm - 0.00 in Rain Light Rain
1:53 AM 50.0 °F - 48.0 °F 93% 29.63 in 10.0 mi Calm Calm - 0.00 in   Overcast
2:53 AM 50.0 °F - 46.9 °F 89% 29.64 in 10.0 mi NW 8.1 mph - 0.00 in Rain Light Rain
3:53 AM 50.0 °F - 45.0 °F 83% 29.63 in 10.0 mi NW 8.1 mph - 0.00 in   Overcast
4:53 AM 48.9 °F - 43.0 °F 80% 29.62 in 10.0 mi NNW 5.8 mph - N/A   Overcast
5:53 AM 48.9 °F - 39.9 °F 71% 29.62 in 10.0 mi WSW 5.8 mph - N/A   Overcast
6:53 AM 46.9 °F - 41.0 °F 80% 29.62 in 10.0 mi NNW 5.8 mph - N/A   Mostly Cloudy
7:53 AM 44.1 °F 42.5 °F 39.9 °F 85% 29.63 in 10.0 mi WNW 3.5 mph - N/A   Scattered Clouds
8:53 AM 48.9 °F - 37.9 °F 66% 29.64 in 10.0 mi Calm Calm - N/A   Scattered Clouds
9:53 AM 52.0 °F - 37.9 °F 59% 29.64 in 10.0 mi WNW 15.0 mph 19.6 mph N/A   Scattered Clouds
10:53 AM 54.0 °F - 37.9 °F 55% 29.65 in 10.0 mi West 10.4 mph 17.3 mph N/A   Scattered Clouds
11:53 AM 55.0 °F - 37.9 °F 53% 29.64 in 10.0 mi WNW 12.7 mph 19.6 mph N/A   Scattered Clouds
12:53 PM 57.0 °F - 39.0 °F 51% 29.64 in 10.0 mi West 11.5 mph - N/A   Partly Cloudy
1:53 PM 57.2 °F - 37.4 °F 48% 29.64 in 10.0 mi West 11.5 mph 17.3 mph N/A   Partly Cloudy
2:53 PM 59.0 °F - 37.0 °F 44% 29.65 in 10.0 mi WNW 12.7 mph 17.3 mph N/A   Scattered Clouds
3:53 PM 57.0 °F - 37.0 °F 47% 29.66 in 10.0 mi NNW 6.9 mph - N/A   Scattered Clouds
4:53 PM 54.0 °F - 39.9 °F 59% 29.65 in 10.0 mi East 9.2 mph - N/A   Scattered Clouds
5:53 PM 55.0 °F - 43.0 °F 64% 29.66 in 10.0 mi ENE 6.9 mph - N/A   Scattered Clouds
6:53 PM 53.1 °F - 44.1 °F 71% 29.68 in 10.0 mi ENE 3.5 mph - N/A   Mostly Cloudy
7:53 PM 53.1 °F - 41.0 °F 64% 29.68 in 10.0 mi North 3.5 mph - N/A   Mostly Cloudy
8:53 PM 48.9 °F - 42.1 °F 77% 29.70 in 10.0 mi Variable 3.5 mph - N/A   Mostly Cloudy
9:53 PM 46.0 °F 42.5 °F 41.0 °F 83% 29.70 in 10.0 mi West 6.9 mph - N/A   Overcast
10:53 PM 45.0 °F 41.8 °F 41.0 °F 86% 29.70 in 10.0 mi WNW 5.8 mph - N/A   Overcast
11:53 PM 43.0 °F 40.3 °F 39.9 °F 89% 29.70 in 10.0 mi West 4.6 mph - N/A   Mostly Cloudy